[[{"header":{"parameterUnit":"m.s-1","parameterCategory":1,"la1":30.2991,"la2":30.254,"lo1":-89.0895,"lo2":-89.0444,"dy":0.0017,"dx":0.0017,"nx":28,"ny":28,"refTime":"2024-05-21T21:00:00:Z","depth":0,"parameterNumber":2,"parameterNumberName":"U-component_of_WINDS"},"data":[0,0,0,0,0,0,0,0,0,0,0,0,0,0,0,0,0,0,0,0,0,0,0,0,0,0,0,0,0,0,0,0,0,0,0,0,0,0,0,0,0,0,0,0,0,0,0,0,0,0,0,0,0,0,0,0,0,0,-3.7905,-3.7905,0,-3.7899,-3.7899,-3.7899,-3.7831,-3.7829,-3.7827,-3.7826,-3.7824,-3.7825,-3.7827,0,0,0,0,0,0,0,0,0,0,0,0,0,-3.7863,-3.7864,-3.7905,-3.7905,-3.7905,-3.7899,-3.7899,-3.7899,-3.7831,-3.7829,-3.7827,-3.7825,-3.7823,-3.7825,-3.7827,0,0,0,0,0,0,0,0,0,0,0,0,0,-3.7872,-3.7864,-3.7905,-3.787,-3.7867,-3.7899,-3.7899,-3.7898,-3.7831,-3.7829,-3.7826,-3.7824,-3.7822,-3.7825,-3.7827,-3.7893,0,0,-3.7834,-3.7835,0,0,0,0,0,0,0,0,-3.7871,-3.7873,-3.7875,-3.7872,-3.7869,-3.7863,-3.7883,-3.7897,-3.7832,-3.7845,-3.7825,-3.7822,-3.7839,-3.784,-3.7844,-3.7893,-3.7893,-3.7834,-3.7836,-3.7837,-3.7837,0,0,0,0,0,0,0,-3.7871,-3.7873,-3.7902,-3.7875,-3.7872,-3.7856,-3.7855,-3.7885,-3.7857,-3.7844,-3.7839,-3.7839,-3.7837,-3.7842,-3.7844,-3.7893,-3.7834,-3.7836,-3.7838,-3.7839,-3.7996,-3.7999,0,0,0,0,0,0,-3.7874,-3.7873,-3.7903,-3.7902,-3.7864,-3.7859,-3.7857,-3.7867,-3.7856,-3.7852,-3.7841,-3.7836,-3.784,-3.7841,-3.7844,-3.792,-3.7837,-3.7839,-3.784,-3.7994,-3.7997,-3.8,0,0,0,0,0,0,-3.7874,-3.7877,-3.7903,-3.7886,-3.7888,-3.7863,-3.7874,-3.7869,-3.7874,-3.7854,-3.7849,-3.7851,-3.7838,-3.784,-3.7881,-3.7919,-3.784,-3.7842,-3.799,-3.7995,-3.7999,-3.8073,0,0,0,0,0,0,-3.7873,-3.7878,-3.7901,-3.7887,-3.7889,-3.7939,-3.7877,-3.787,-3.7878,-3.7871,-3.7862,-3.7859,-3.7836,-3.7878,-3.7883,-3.7921,-3.7844,-3.7987,-3.7992,-3.7997,-3.8067,-3.8079,-3.809,0,0,0,0,0,-3.7871,-3.7923,-3.7902,-3.7906,-3.7918,-3.7941,-3.7943,-3.7914,-3.7881,-3.7905,-3.7893,-3.7859,-3.7914,-3.7883,-3.7888,-3.7927,-3.7984,-3.7991,-3.7997,-3.8062,-3.8077,-3.809,0,0,0,0,0,0,-3.7942,-3.792,-3.7897,-3.7946,-3.7946,-3.793,-3.7959,-3.7931,-3.7941,-3.7934,-3.79,-3.7899,-3.7945,-3.794,-3.7905,-3.7991,-3.7944,-3.7951,-3.7991,-3.8005,-3.8017,-3.8016,-3.7846,0,0,0,0,0,-3.7964,-3.7983,-3.7963,-3.8008,-3.8009,-3.7985,-3.7994,-3.7972,-3.7971,-3.7971,-3.7961,-3.7963,-3.7981,-3.7993,-3.8009,-3.8067,-3.8065,-3.8097,-3.8108,-3.8118,-3.8124,-3.8156,-3.817,-3.8021,-3.8021,-3.8021,0,0,-3.8008,-3.7998,-3.8013,-3.8022,-3.802,-3.8042,-3.7985,-3.8011,-3.8027,-3.7975,-3.8012,-3.8006,-3.8006,-3.8056,-3.8078,-3.8054,-3.8165,-3.8126,-3.8133,-3.8135,-3.8164,-3.8178,-3.819,-3.8025,-3.8024,-3.8024,0,0,-3.8099,-3.8094,-3.813,-3.8129,-3.8126,-3.8109,-3.8119,-3.8107,-3.81,-3.8137,-3.8099,-3.812,-3.8151,-3.8152,-3.8158,-3.8253,-3.8222,-3.8259,-3.8317,-3.8348,-3.836,-3.837,-3.8404,-3.8416,-3.8266,-3.8266,-3.8266,0,-3.8154,-3.8184,-3.8153,-3.8181,-3.8187,-3.8141,-3.8179,-3.818,-3.8182,-3.8188,-3.8161,-3.82,-3.8197,-3.8247,-3.827,-3.8276,-3.8287,-3.8258,-3.8361,-3.8371,-3.838,-3.8411,-3.8424,-3.8271,-3.827,-3.827,-3.8269,0,-3.8253,-3.8275,-3.8305,-3.8308,-3.8317,-3.835,-3.8326,-3.834,-3.8318,-3.8305,-3.8345,-3.834,-3.8353,-3.8364,-3.8344,-3.8412,-3.8397,-3.8367,-3.8318,-3.8399,-3.8428,-3.844,-3.8277,-3.8275,-3.8274,-3.8273,0,0,-3.8386,-3.8372,-3.8383,-3.8384,-3.8378,-3.8395,-3.8428,-3.844,-3.8453,-3.8458,-3.8484,-3.8513,-3.8485,-3.8491,-3.847,-3.8498,-3.8573,-3.8464,-3.8463,-3.8483,-3.8649,-3.8671,-3.8685,-3.8555,-3.8557,-3.8558,-3.8649,0,-3.8473,-3.8524,-3.8498,-3.8554,-3.8575,-3.8533,-3.8561,-3.8562,-3.8551,-3.8569,-3.8558,-3.8579,-3.854,-3.8543,-3.8569,-3.8559,-3.8606,-3.8552,-3.858,-3.8581,-3.8579,-3.8701,-3.8724,-3.8809,-3.866,-3.8662,-3.8663,0,-3.858,-3.8588,-3.8646,-3.8637,-3.8645,-3.867,-3.868,-3.8697,-3.8698,-3.8689,-3.8697,-3.8671,-3.8704,-3.8658,-3.8703,-3.8667,-3.8678,-3.8675,-3.8678,-3.8677,-3.8625,-3.8703,-3.8835,-3.8848,-3.8681,-3.868,-3.8678,0,-3.8671,-3.8696,-3.8734,-3.8736,-3.8727,-3.8746,-3.8744,-3.8742,-3.8752,-3.8762,-3.8768,-3.8782,-3.879,-3.8802,-3.8782,-3.875,-3.8831,-3.8783,-3.8825,-3.8825,-3.8842,-3.884,-3.8976,-3.8851,-3.8851,-3.8851,-3.8851,0,-3.8769,-3.8806,-3.8774,-3.8797,-3.8838,-3.8809,-3.885,-3.8844,-3.8843,-3.8865,-3.8832,-3.8854,-3.8826,-3.8846,-3.8831,-3.8871,-3.8876,-3.887,-3.8865,-3.8872,-3.8872,-3.8877,-3.887,-3.8854,-3.8854,-3.8853,-3.8852,0,-3.8876,-3.8856,-3.8894,-3.8883,-3.8881,-3.8911,-3.8903,-3.8925,-3.8913,-3.8942,-3.8947,-3.8929,-3.8952,-3.8933,-3.8955,-3.8945,-3.8998,-3.8986,-3.8997,-3.8993,-3.9035,-3.9031,-3.9177,-3.9195,-3.906,-3.9062,-3.9063,0,-3.8939,-3.8966,-3.8958,-3.897,-3.8969,-3.8989,-3.8998,-3.8973,-3.8984,-3.8989,-3.901,-3.903,-3.9043,-3.9081,-3.9071,-3.9088,-3.9075,-3.9126,-3.9078,-3.9084,-3.9075,-3.9073,-3.9076,-3.9135,-3.9136,-3.9137,-3.9139,0,-3.9053,-3.9042,-3.9056,-3.9068,-3.908,-3.9088,-3.9094,-3.9106,-3.908,-3.9096,-3.9117,-3.9128,-3.915,-3.917,-3.9184,-3.9184,-3.9157,-3.9154,-3.9164,-3.9171,-3.9175,-3.9172,-3.9022,-3.915,-3.9149,-3.9148,-3.9148,-3.9147,-3.9139,-3.9161,-3.9159,-3.9177,-3.9178,-3.9185,-3.9205,-3.9196,-3.9213,-3.9227,-3.9212,-3.9239,-3.9242,-3.9257,-3.9261,-3.9282,-3.9262,-3.9277,-3.9281,-3.9284,-3.929,-3.9174,-3.9285,-3.9285,-3.9285,-3.9284,-3.9284,0,-3.9251,-3.9248,-3.9264,-3.9273,-3.9287,-3.9261,-3.9266,-3.928,-3.9303,-3.9307,-3.9322,-3.9347,-3.9367,-3.936,-3.9377,-3.9396,-3.9385,-3.9402,-3.9399,-3.94,-3.9308,-3.9296,-3.9411,-3.9411,-3.9411,-3.9411,-3.9411,-3.9411,-3.931,-3.9346,-3.9336,-3.9373,-3.9371,-3.9395,-3.94,-3.9407,-3.941,-3.9439,-3.9455,-3.945,-3.945,-3.9468,-3.9485,-3.9483,-3.9491,-3.9512,-3.9505,-3.9419,-3.9406,-3.9394,-3.9383,-3.9514,-3.9514,-3.9595,-3.9596,-3.9596]},{"header":{"parameterUnit":"m.s-1","parameterCategory":1,"la1":30.2991,"la2":30.254,"lo1":-89.0895,"lo2":-89.0444,"dy":0.0017,"dx":0.0017,"nx":28,"ny":28,"refTime":"2024-05-21T21:00:00:Z","depth":0,"parameterNumber":3,"parameterNumberName":"V-component_of_WINDS"},"data":[0,0,0,0,0,0,0,0,0,0,0,0,0,0,0,0,0,0,0,0,0,0,0,0,0,0,0,0,0,0,0,0,0,0,0,0,0,0,0,0,0,0,0,0,0,0,0,0,0,0,0,0,0,0,0,0,0,0,2.1052,2.105,0,2.0942,2.0941,2.094,2.0879,2.0879,2.0879,2.0879,2.0758,2.0755,2.0752,0,0,0,0,0,0,0,0,0,0,0,0,0,2.1203,2.12,2.1052,2.105,2.1049,2.0942,2.0941,2.0939,2.0879,2.0879,2.0879,2.0879,2.0759,2.0755,2.0752,0,0,0,0,0,0,0,0,0,0,0,0,0,2.1119,2.12,2.1052,2.1006,2.1001,2.0943,2.0941,2.0939,2.0879,2.0879,2.0879,2.0878,2.076,2.0756,2.0751,2.0727,0,0,2.0737,2.0735,0,0,0,0,0,0,0,0,2.1124,2.1114,2.1014,2.1009,2.1003,2.0924,2.095,2.0868,2.0879,2.0925,2.0879,2.0878,2.0813,2.0804,2.0784,2.0722,2.0716,2.0737,2.0734,2.0732,2.0731,0,0,0,0,0,0,0,2.113,2.1118,2.1008,2.1013,2.1006,2.0989,2.0977,2.0934,2.0871,2.0921,2.0917,2.0905,2.081,2.0788,2.078,2.0715,2.0737,2.0733,2.073,2.0728,2.0629,2.0629,0,0,0,0,0,0,2.1144,2.1124,2.1012,2.1005,2.1065,2.0987,2.0973,2.095,2.0872,2.086,2.0905,2.0902,2.0796,2.0786,2.0776,2.0744,2.0732,2.0728,2.0725,2.0629,2.0629,2.0629,0,0,0,0,0,0,2.1148,2.1135,2.1016,2.1063,2.1047,2.0985,2.0958,2.0948,2.0926,2.086,2.0848,2.0895,2.0796,2.0782,2.0741,2.0739,2.0726,2.0721,2.0629,2.0629,2.0629,2.0679,0,0,0,0,0,0,2.1152,2.1136,2.1128,2.1063,2.1044,2.0985,2.0958,2.0946,2.0919,2.0915,2.0847,2.0835,2.0794,2.0748,2.0736,2.0732,2.0718,2.0629,2.0629,2.0629,2.0677,2.068,2.0684,0,0,0,0,0,2.1158,2.1144,2.1128,2.1114,2.1033,2.0985,2.0973,2.0929,2.0919,2.0909,2.0867,2.0838,2.0741,2.0744,2.073,2.0725,2.0629,2.0629,2.0629,2.0675,2.068,2.0683,0,0,0,0,0,0,2.1206,2.1134,2.1116,2.1081,2.104,2.0975,2.096,2.0935,2.0893,2.089,2.0835,2.082,2.0784,2.075,2.0755,2.0698,2.0682,2.0679,2.0722,2.0725,2.0729,2.0737,2.0714,0,0,0,0,0,2.1213,2.1182,2.112,2.1095,2.1076,2.1023,2.1,2.097,2.0924,2.0905,2.0859,2.0814,2.0773,2.0748,2.0706,2.0673,2.0657,2.0662,2.0665,2.0668,2.0666,2.0647,2.0648,2.063,2.063,2.063,0,0,2.1226,2.1183,2.1166,2.1104,2.1069,2.1037,2.1008,2.0974,2.0949,2.0899,2.0858,2.0823,2.0769,2.0732,2.0712,2.0702,2.0668,2.0669,2.0672,2.0668,2.0647,2.0649,2.0651,2.0631,2.0631,2.063,0,0,2.1233,2.1198,2.1175,2.1141,2.1089,2.1054,2.1049,2.0988,2.0964,2.0923,2.0885,2.0854,2.0785,2.0749,2.0721,2.0719,2.069,2.0707,2.0724,2.0705,2.0707,2.0708,2.0707,2.0707,2.0705,2.0706,2.0706,0,2.1255,2.1207,2.1165,2.1135,2.1108,2.1066,2.104,2.1009,2.0945,2.0927,2.0918,2.0833,2.0793,2.0747,2.0747,2.0726,2.0717,2.0713,2.0711,2.0711,2.0711,2.071,2.071,2.0708,2.0708,2.0707,2.0707,0,2.1237,2.1205,2.1191,2.1135,2.1108,2.108,2.1032,2.1009,2.0982,2.0948,2.0907,2.0858,2.0807,2.0795,2.0766,2.0745,2.074,2.0722,2.0703,2.0716,2.0714,2.0713,2.0711,2.0711,2.071,2.0709,0,0,2.1268,2.1193,2.1188,2.1163,2.1105,2.1078,2.1048,2.1002,2.0984,2.0942,2.0915,2.086,2.0843,2.0812,2.078,2.0764,2.0766,2.0747,2.0745,2.0752,2.074,2.0754,2.0754,2.0748,2.0748,2.0747,2.0745,0,2.1267,2.1215,2.1178,2.1139,2.1109,2.107,2.1044,2.1005,2.0973,2.094,2.0904,2.0866,2.0847,2.0828,2.0811,2.077,2.0763,2.0769,2.072,2.0719,2.0735,2.0753,2.0767,2.0767,2.0743,2.0743,2.0743,0,2.1258,2.1222,2.1182,2.1129,2.1115,2.1093,2.1049,2.1019,2.0974,2.0952,2.0919,2.0887,2.0853,2.0841,2.0793,2.0798,2.0776,2.0753,2.0752,2.0745,2.0731,2.0745,2.0765,2.0765,2.0741,2.0741,2.0741,0,2.1285,2.1226,2.1195,2.1175,2.1112,2.1098,2.1071,2.1026,2.1001,2.0962,2.0945,2.0902,2.0877,2.0844,2.08,2.0795,2.0757,2.074,2.0736,2.0738,2.0728,2.0729,2.0745,2.0716,2.0716,2.0716,2.0716,0,2.1287,2.1264,2.1207,2.1188,2.1161,2.1118,2.1091,2.106,2.1021,2.0994,2.0957,2.0932,2.0877,2.0845,2.081,2.0776,2.0765,2.0745,2.0736,2.0748,2.0751,2.0731,2.073,2.0716,2.0716,2.0716,2.0716,0,2.1312,2.1273,2.1236,2.1182,2.1168,2.115,2.1103,2.1082,2.105,2.1016,2.1005,2.0953,2.0914,2.0868,2.0812,2.079,2.0758,2.0745,2.0774,2.0769,2.0767,2.0768,2.077,2.0768,2.0743,2.0743,2.0743,0,2.1315,2.1297,2.1242,2.1223,2.1198,2.1167,2.1143,2.11,2.1077,2.1026,2.1011,2.097,2.0934,2.0873,2.0829,2.0786,2.0772,2.0775,2.0764,2.0778,2.0771,2.0772,2.077,2.0778,2.0778,2.0779,2.0779,0,2.1325,2.1308,2.1276,2.1238,2.1212,2.1179,2.1145,2.1131,2.1081,2.1056,2.1017,2.099,2.0936,2.0895,2.0848,2.0818,2.0789,2.0784,2.078,2.0791,2.0809,2.0799,2.0781,2.0783,2.0782,2.0782,2.0782,2.0782,2.1338,2.1322,2.1281,2.1248,2.1218,2.1188,2.1166,2.1133,2.1101,2.1056,2.1032,2.0994,2.095,2.0885,2.0856,2.0824,2.0814,2.081,2.0808,2.0808,2.0811,2.0816,2.0815,2.0815,2.0815,2.0815,2.0815,0,2.1347,2.132,2.129,2.1245,2.1219,2.1199,2.116,2.1139,2.1107,2.107,2.1037,2.0993,2.0954,2.0909,2.0867,2.085,2.0836,2.084,2.084,2.0834,2.0822,2.0829,2.0852,2.0852,2.0852,2.0852,2.0852,2.0852,2.1348,2.1318,2.1296,2.1252,2.1224,2.1189,2.1169,2.1141,2.1111,2.1065,2.1034,2.1006,2.0965,2.092,2.0884,2.0871,2.0857,2.0865,2.0848,2.0838,2.0834,2.0831,2.0838,2.0862,2.0862,2.0862,2.0862,2.0862]}]]